SCP
0 0 0 0 0 0 0 0 0 0 0 1 1 1 1 1 0 0 0 0 0 0 0 0 0 0 0 0 0 0 0 0 0 0 0 0 0 0
0 0 0 0 0 0 0 0 0 0 0 1 1 1 1 0 0 0 0 0 0 0 0 0 0 0 0 0 0 0 0 0 0 0 0 0 0 0
0 0 0 0 0 0 0 0 0 0 0 0 0 0 0 0 0 0 0 0 0 0 0 0 0 0 0 0 0 0 0 0 0 0 0 0 0 0
0 0 0 0 0 0 0 0 0 0 0 0 0 0 0 0 0 0 0 0 0 0 0 0 0 0 0 0 0 0 0 0 0 0 0 0 0 0
0 0 0 0 0 0 0 0 0 0 0 0 0 0 0 0 0 0 0 0 0 0 0 0 0 0 0 0 0 0 0 0 0 0 0 0 0 0
0 0 0 0 0 0 0 0 0 0 0 0 0 0 0 0 0 0 0 0 0 0 0 0 0 0 0 0 0 0 0 0 0 0 0 0 0 0
0 0 0 0 0 0 0 0 0 0 0 0 0 0 0 0 0 0 0 0 0 0 0 0 0 0 0 0 0 0 0 0 0 0 0 0 0 0
0 0 0 0 0 0 0 0 0 0 0 0 0 0 0 0 0 0 0 0 0 0 0 0 0 0 0 0 0 0 0 0 0 0 0 0 0 0
0 0 0 0 0 0 0 0 0 0 0 0 0 0 0 0 0 0 0 0 0 0 0 0 0 0 0 0 0 0 0 0 0 0 0 0 0 0
0 0 0 0 0 0 0 0 0 0 0 0 0 0 0 0 0 0 0 0 0 0 0 0 0 0 0 0 -0 0 0 0 0 0 0 0 0 0
0 0 0 0 0 0 0 0 0 0 0 0 0 0 0 0 0 0 0 0 0 0 0 0 0 0 0 0 0 0 0 0 0 0 0 0 0 0
0 0 0 0 0 0 0 0 0 0 0 0 0 0 0 0 0 0 0 0 0 0 0 0 0 0 0 0 0 -0 -0 0 0 0 0 0 0 0
0 0 0 0 0 0 0 0 0 0 0 0 0 0 0 0 0 0 0 0 0 0 0 0 0 0 0 0 0 0 0 0 0 0 0 0 0 0
0 0 0 0 0 0 0 0 0 0 0 0 0 0 0 0 0 0 0 0 0 0 0 0 0 0 0 0 0 0 0 0 0 0 0 0 0 0
0 0 0 0 0 0 0 0 0 0 0 0 0 0 0 0 0 0 0 0 0 0 0 0 0 0 0 0 0 0 0 0 0 0 0 0 0 0
0 0 0 0 0 0 0 0 0 0 0 0 0 0 0 0 0 0 0 0 0 0 0 0 0 0 0 0 0 0 0 0 0 0 0 0 0 0
0 0 0 0 0 0 0 0 0 0 0 0 0 0 0 0 0 0 0 0 0 0 0 0 0 0 0 0 0 0 0 0 0 0 -0 0 0 0
0 0 0 0 0 0 0 0 0 0 0 0 0 0 0 0 0 0 0 0 0 0 0 -0 0 0 0 0 0 0 0 0 0 0 -0 0 0 0
0 0 0 0 0 0 0 0 0 0 0 0 0 0 0 0 0 0 0 0 0 0 0 0 0 0 0 0 0 0 0 0 0 0 0 0 0 0
0 0 0 0 0 0 0 0 0 0 0 0 0 0 0 0 0 0 0 0 0 0 0 0 0 0 0 0 0 0 0 0 0 0 0 0 0 0
0 0 0 0 0 0 0 0 0 0 0 0 0 0 0 0 0 0 0 0 0 0 0 0 0 0 0 0 0 0 0 0 0 0 0 0 0 0
0 0 0 0 0 0 0 0 0 0 0 0 0 0 0 0 0 0 0 0 0 0 0 0 0 0 0 0 0 0 0 0 0 0 0 0 0 0
0 0 0 0 0 0 0 0 0 0 0 0 0 0 0 0 0 0 0 0 0 0 0 0 0 0 0 0 0 0 0 0 0 0 0 0 0 0
Wind_Speed
6 6 5 5 6 6 6 6 5 5 3 3 2 3 4 6 6 6 7 11 12 12 12 13 13 14 14 14 15 14 14 14 14 13 12 10 8 4
5 6 6 5 5 5 5 5 6 6 3 2 3 5 6 7 7 8 9 13 13 13 13 13 14 14 15 15 15 15 15 15 15 15 14 13 13 12
5 5 6 6 5 5 5 5 5 5 4 2 3 6 7 9 8 8 8 8 9 14 15 15 15 15 15 15 15 15 15 15 15 15 14 14 14 13
5 5 5 5 6 5 5 5 5 5 5 7 5 5 7 9 9 9 8 8 8 14 15 16 16 16 15 15 15 14 14 14 14 14 14 13 13 13
4 4 4 5 6 5 5 4 3 4 6 9 7 5 6 7 9 9 10 8 9 11 14 15 15 16 15 15 14 14 14 14 14 14 14 14 14 14
3 2 3 4 5 5 4 2 2 5 8 9 9 7 6 7 7 8 8 6 7 8 9 11 14 16 16 15 15 14 13 13 13 13 13 12 12 13
2 1 2 3 3 3 1 1 5 7 8 9 9 7 7 7 6 5 8 7 6 7 8 7 7 7 8 11 13 14 12 12 12 12 12 12 12 12
3 3 4 3 3 6 7 7 7 9 9 8 7 8 7 5 4 5 7 8 6 5 6 6 6 6 5 5 8 10 11 11 12 11 11 10 9 9
5 5 4 5 4 5 8 11 11 11 10 8 9 7 6 5 5 5 5 6 5 6 6 6 6 6 5 6 8 9 10 10 10 10 10 9 7 7
6 6 6 7 6 7 7 8 8 8 8 7 7 6 5 4 5 6 6 6 6 6 7 6 6 6 6 4 7 8 9 9 8 9 9 8 7 6
7 8 9 9 10 10 9 10 10 8 10 13 12 11 10 8 5 4 5 5 5 4 4 5 6 5 4 4 5 7 7 6 6 5 7 8 8 6
6 8 11 12 12 10 9 10 11 9 10 11 9 9 7 7 7 4 2 4 6 4 3 4 6 5 4 3 4 5 4 5 4 2 2 4 5 3
7 8 8 15 13 10 9 8 11 11 9 8 7 5 5 4 5 5 4 2 5 4 3 3 4 3 4 4 4 5 5 4 4 3 4 3 1 2
5 8 10 15 13 11 8 12 15 11 7 6 5 5 5 6 6 6 6 6 7 7 5 4 3 2 3 4 3 3 3 3 3 1 1 4 3 3
3 9 16 16 14 9 12 15 12 6 6 6 6 5 6 7 6 5 5 6 6 7 7 6 4 2 3 4 4 3 2 2 3 3 2 1 3 4
3 11 17 15 9 11 11 9 6 4 5 5 7 8 6 5 4 4 4 5 5 4 5 6 6 5 4 4 4 3 2 2 3 3 2 3 1 2
6 8 9 8 8 8 7 6 5 5 5 7 8 7 6 4 4 4 4 5 5 4 3 2 3 4 5 3 3 2 2 2 2 1 1 2 2 2
7 8 10 10 10 9 8 7 5 5 5 7 7 6 5 5 4 4 4 5 6 5 4 3 3 2 2 3 2 2 2 2 1 1 1 2 2 1
6 7 8 9 9 9 7 6 6 5 5 6 6 5 5 5 5 4 3 4 5 5 5 4 4 4 5 5 2 2 2 2 0 1 1 1 2 2
7 7 7 7 8 7 7 6 6 6 6 6 5 5 5 5 4 4 3 4 5 5 4 3 2 1 2 1 3 3 4 3 3 1 1 2 2 2
6 5 6 7 7 7 6 7 7 6 5 5 5 5 5 5 4 4 4 5 4 4 4 4 3 2 1 1 1 3 4 7 6 4 3 2 2 2
3 3 4 6 6 6 7 7 8 6 6 5 5 5 5 5 5 5 6 4 3 2 6 5 3 2 1 3 3 2 4 5 8 10 7 5 3 3
2 2 3 5 6 6 7 8 9 7 5 5 6 5 5 5 4 5 6 5 4 4 6 6 5 4 4 4 4 3 3 4 4 4 5 12 15 15
Wind_Direction
281 285 282 275 267 261 256 246 242 251 237 170 119 102 105 103 121 108 105 101 99 95 90 87 84 83 81 80 79 76 74 72 68 62 56 53 55 50
275 275 277 278 276 270 258 248 231 226 228 159 137 138 120 114 107 105 105 103 97 96 93 92 90 86 83 82 80 78 75 73 71 67 62 57 56 57
286 293 297 296 287 279 265 248 233 213 200 120 108 122 117 115 109 110 111 101 100 99 98 95 92 88 84 82 80 77 75 72 70 68 64 59 57 56
291 301 306 308 309 294 275 254 232 204 166 144 131 128 121 119 117 112 108 103 101 102 101 98 94 90 86 82 79 77 73 71 69 67 65 63 61 59
287 300 309 314 313 305 289 264 227 189 151 140 135 126 120 123 118 112 111 111 108 110 102 97 96 92 88 84 80 77 74 71 69 67 66 65 65 63
273 296 316 322 317 306 287 254 171 139 134 135 135 132 128 125 123 126 125 128 127 121 103 102 99 92 89 87 85 81 76 73 71 69 68 67 68 67
226 183 49 35 9 346 314 160 142 133 133 133 133 132 134 138 139 143 139 137 128 128 126 125 117 102 92 87 84 82 79 76 73 71 69 68 67 67
200 160 138 112 80 71 75 87 118 132 134 133 133 138 139 139 138 146 146 145 142 153 140 137 123 106 98 93 98 94 89 83 80 78 77 76 76 74
193 175 172 137 135 112 93 86 88 102 119 128 135 138 142 152 158 162 162 154 138 151 137 124 116 106 106 116 125 112 102 92 84 78 75 75 80 94
190 171 151 150 153 139 123 107 101 100 115 121 120 120 129 145 150 148 138 123 121 135 135 126 131 126 124 131 151 135 122 109 96 81 68 59 63 113
189 169 157 153 154 149 130 117 109 103 100 104 108 112 111 106 111 129 137 134 132 133 132 124 135 131 137 147 168 168 149 134 116 92 68 50 46 107
182 165 160 151 154 150 139 132 127 127 124 118 115 119 116 106 96 95 117 146 142 134 128 119 146 145 147 158 162 173 180 178 174 164 85 53 42 64
176 164 153 150 150 148 145 136 138 136 133 131 127 123 113 96 81 70 62 108 135 120 120 113 152 157 140 146 159 174 173 170 185 205 224 225 60 63
190 164 153 154 148 147 144 143 147 144 138 136 134 133 118 97 87 78 69 66 87 94 63 58 103 133 138 140 138 144 144 139 125 110 161 178 178 134
236 160 149 149 143 143 149 154 158 158 146 145 139 123 110 111 106 95 87 79 72 74 64 44 48 50 84 114 119 123 132 135 111 75 10 270 183 170
170 146 140 145 143 136 148 162 177 171 154 141 124 117 119 127 133 138 130 113 95 78 65 57 45 55 66 76 101 109 102 107 103 83 335 301 283 135
148 151 146 148 146 147 160 176 183 156 140 125 124 131 142 154 156 154 145 132 122 124 118 93 77 84 85 66 89 79 82 82 97 105 299 315 331 92
172 163 156 156 155 158 167 170 165 146 137 131 135 144 156 159 148 145 155 147 145 146 145 147 137 121 110 47 41 84 91 80 21 336 3 0 340 59
194 176 161 159 158 161 163 158 151 140 134 135 144 150 151 142 139 155 164 143 140 141 149 161 174 182 199 187 216 281 148 136 75 359 358 336 305 300
207 178 162 159 156 157 157 154 145 137 138 144 150 149 146 144 152 162 153 141 134 134 143 157 142 102 41 104 150 205 226 181 163 198 268 283 276 291
203 169 159 154 152 152 150 145 139 141 153 151 148 148 150 152 160 165 133 128 145 159 154 131 129 149 84 7 230 171 195 220 207 193 207 249 272 279
183 152 151 147 147 147 140 139 141 150 158 154 145 151 154 159 166 159 140 148 184 171 127 127 158 172 206 247 267 204 181 199 236 235 232 219 214 235
178 161 147 147 143 141 144 148 149 154 160 159 148 161 165 165 161 151 146 168 187 165 143 154 172 197 225 224 233 244 223 207 209 194 230 230 230 242